Tracking 35331 objects as of 14-Sep-2026
HD Live streaming from Space Station
objects crossing your sky now

STARLINK-6366

Track STARLINK-6366 now!
10-day predictions
STARLINK-6366 is classified as:


NORAD ID: 57380
Int'l Code: 2023-099BE
Launch date: July 16, 2023
Source: United States (US)
Launch site: AIR FORCE EASTERN TEST RANGE (AFETR)
Your satellite tracking list
Your tracking list is empty




NASA's NSSDC Master Catalog

Two Line Element Set (TLE):
1 57380U 23099BE  26257.24605324  .00000564  00000-0  30012-4 0  9999
2 57380  43.0039 227.6378 0001347 276.6172  83.4526 15.27577092176103
Source of the keplerian elements: AFSPC